Tracking 18942 objects as of 18-Jan-2018
HD Live streaming from Space Station
objects crossing your sky now

SL-14 R/B

Track SL-14 R/B now!
10-day predictions
SL-14 R/B is classified as:


NORAD ID: 11672
Int'l Code: 1980-005B
Perigee: 600.5 km
Apogee: 622.8 km
Inclination: 82.5 °
Period: 96.8 minutes
Semi major axis: 6982 km
RCS: 4.2954 m2 (large)
Launch date: January 23, 1980
Source: Commonwealth of Independent States (former USSR) (CIS)
Launch site: PLESETSK MISSILE AND SPACE COMPLEX (PKMTR)

Note: This is a ROCKET BODY
aabbcc
Your satellite tracking list
Your tracking list is empty




NASA's NSSDC Master Catalog

Two Line Element Set (TLE):
1 11672U 80005B   18017.57653307 +.00000093 +00000-0 +74125-5 0  9999
2 11672 082.5140 237.0124 0015950 330.1951 029.8356 14.87904345055277
Source of the keplerian elements: AFSPC